Theta_e
328 327 327 328 329 330 332 331 330 330 329 328 327 326 323 321 317 314 314 316 318 322 325 321 326 330 329 328 329 329 328 324 324 325 324 324 322 316 314 314 317 316 313 310 311 314 318 318 318 319 322 323 324 321 319 317 315 316 322 323 320 315 314 315 313 316 320 319 316 313 311 309 308 307
328 327 327 329 328 330 331 331 331 330 328 327 326 326 326 324 319 317 314 315 319 320 324 325 324 327 327 329 329 330 328 321 325 326 326 324 323 315 312 312 315 315 312 309 307 311 314 315 317 320 323 324 322 318 317 316 315 320 323 323 321 317 316 316 317 318 320 317 312 312 311 310 309 308
327 327 326 329 329 329 330 331 331 331 329 327 327 327 326 323 322 319 317 313 319 322 320 323 327 327 328 329 329 329 328 324 326 327 326 326 320 315 314 312 313 314 313 310 309 313 317 314 316 320 322 323 321 318 320 320 320 322 323 317 315 317 317 316 317 319 319 316 313 312 311 310 310 309
327 327 327 328 328 329 330 331 331 329 329 329 328 326 325 324 324 321 319 316 316 321 322 322 324 328 328 329 328 327 327 325 322 327 327 325 318 317 318 311 313 313 312 311 314 320 320 317 319 321 322 323 321 321 322 320 320 320 316 313 314 316 315 315 316 320 319 316 314 313 312 311 311 310
327 327 327 327 329 329 329 330 329 328 327 328 327 325 324 324 323 322 318 317 315 319 324 324 325 327 328 327 328 326 326 324 323 324 326 322 321 321 320 318 311 311 310 310 310 313 313 315 325 321 318 320 319 317 316 314 313 317 315 310 311 311 313 313 313 316 318 316 315 313 313 312 312 311
328 327 327 328 329 328 329 328 330 329 328 327 326 326 326 325 323 323 320 319 318 317 321 322 325 325 328 324 326 325 323 322 322 324 323 323 324 323 322 321 317 309 311 309 309 311 311 311 316 314 312 312 312 312 312 312 311 314 309 306 310 313 315 315 312 313 318 317 315 313 313 312 312 311
327 327 326 327 327 329 329 326 325 326 328 327 326 325 324 324 323 324 324 320 319 319 319 323 322 323 325 323 323 324 324 322 324 323 323 323 325 325 323 323 321 308 308 308 309 310 310 311 312 311 311 310 310 309 309 309 309 309 307 304 309 311 311 311 309 309 317 317 315 313 313 311 312 312
325 324 324 324 325 325 325 324 325 326 325 324 324 323 323 323 323 323 324 324 321 320 319 321 322 323 322 320 323 324 323 322 323 324 324 324 324 324 324 323 322 312 307 308 309 309 310 310 310 310 310 310 309 309 309 308 308 307 306 305 306 307 307 306 305 305 309 317 316 315 312 311 313 313
325 324 324 324 324 326 325 322 323 325 323 324 323 322 322 322 324 324 323 324 323 320 320 320 321 322 322 321 321 322 320 321 323 324 322 323 323 322 323 323 322 309 307 308 309 309 308 309 309 309 309 308 308 307 308 307 306 306 306 305 305 306 305 305 304 304 305 308 310 316 315 311 313 314
326 325 325 326 325 323 323 323 324 325 323 323 322 322 323 323 324 322 322 322 323 321 321 320 319 319 318 318 319 320 321 319 317 319 321 322 323 321 320 320 320 316 315 315 313 308 307 307 308 308 308 308 306 307 307 306 306 306 306 305 305 305 304 304 303 303 303 303 305 308 311 311 313 314
326 326 325 324 324 323 324 323 321 323 323 323 323 323 323 323 322 320 319 320 321 320 320 318 319 318 318 317 316 318 320 319 316 313 312 315 321 320 318 316 317 317 317 315 311 311 311 310 309 308 308 308 307 307 305 305 305 304 304 303 303 304 304 304 304 303 302 301 301 302 303 307 313 315
325 326 325 324 324 323 325 323 322 323 324 323 322 323 324 322 320 319 319 320 318 317 316 316 314 317 316 316 317 318 317 315 312 314 311 310 314 316 317 316 315 316 317 316 315 312 310 308 307 306 306 306 305 305 305 306 306 305 303 303 303 303 303 303 303 302 302 302 301 300 300 300 301 312
325 325 322 320 322 326 326 321 321 322 323 323 321 322 323 321 320 319 318 318 316 314 314 314 315 315 314 315 314 313 312 312 312 312 311 310 315 316 314 315 318 317 316 316 314 315 313 311 309 309 308 307 305 305 306 306 307 304 302 302 302 302 302 302 302 302 302 302 301 300 299 299 299 299
322 320 318 318 317 312 310 308 305 306 308 316 323 323 322 322 320 320 319 317 316 315 314 313 313 313 313 314 314 314 316 316 315 311 310 309 311 313 311 312 311 317 317 315 314 315 316 314 312 312 310 311 308 307 307 307 307 305 302 302 302 302 302 301 301 301 301 300 301 300 299 299 298 298
321 321 321 321 322 317 314 307 299 298 297 298 300 301 306 316 323 321 317 316 316 315 314 313 313 313 313 315 317 316 314 314 314 312 312 311 310 309 308 307 309 315 316 312 312 312 316 316 310 307 305 306 305 306 307 305 305 305 303 302 302 301 301 300 300 299 300 299 299 299 299 299 299 298
322 321 320 320 320 320 319 313 308 303 300 298 299 298 298 297 296 300 314 316 315 316 315 314 313 314 312 313 315 312 312 311 311 312 313 311 311 310 308 307 308 313 317 312 310 308 309 309 305 303 303 302 302 301 300 301 301 302 302 301 300 300 300 299 299 299 299 299 299 298 298 298 298 297
319 318 316 315 314 313 318 318 314 313 312 305 302 303 303 302 299 296 298 307 316 317 315 315 314 315 314 314 314 315 314 312 312 312 313 310 311 311 311 308 308 313 317 313 309 307 308 306 304 304 305 304 303 302 300 300 300 300 300 300 299 299 299 300 299 299 299 298 298 298 298 297 297 296
310 313 312 312 311 311 310 309 314 318 314 312 311 309 307 306 305 302 300 304 306 313 319 317 315 316 318 316 317 318 315 315 314 314 312 311 311 311 310 312 311 311 317 313 311 308 308 307 304 302 303 303 302 302 300 299 299 299 299 299 299 299 299 299 299 299 298 298 297 297 297 296 295 295
305 306 309 310 309 309 308 305 302 315 313 312 310 308 307 307 305 303 304 310 312 312 313 313 312 312 314 317 319 320 320 318 317 316 315 315 314 313 312 309 309 309 311 314 312 306 307 307 303 302 302 302 302 302 299 299 299 299 299 298 298 298 298 298 298 298 298 298 297 296 295 294 294 293
303 304 304 305 307 308 309 304 302 309 315 313 311 310 309 307 306 303 300 298 302 307 310 310 309 307 305 302 308 314 320 319 317 316 317 317 314 312 309 306 304 303 306 307 310 308 306 306 302 302 303 303 301 302 301 299 300 299 299 298 298 298 298 298 298 297 297 296 296 296 294 294 293 293
301 301 302 302 303 304 302 298 298 303 311 315 313 311 310 309 308 307 306 299 297 297 297 296 296 296 296 297 297 299 305 314 316 317 314 312 312 309 306 303 300 301 302 303 306 310 304 304 303 301 303 302 300 301 301 301 298 299 298 298 298 298 297 297 297 297 296 296 295 295 294 294 293 294
300 301 301 301 299 299 298 294 296 301 311 315 314 313 312 310 310 309 310 310 306 296 296 297 297 298 298 298 298 298 298 300 308 316 312 312 311 307 306 302 299 300 301 302 305 308 305 305 304 302 303 302 302 301 300 299 299 298 297 297 297 297 297 297 297 297 296 296 295 295 294 294 294 292
299 299 299 298 296 297 295 293 294 296 306 312 313 312 311 310 310 310 312 312 311 311 311 311 309 307 306 308 307 304 299 301 304 308 311 313 311 308 305 302 302 301 301 302 306 307 305 304 305 303 302 300 301 302 300 299 300 298 298 297 297 297 297 296 296 296 296 295 295 294 294 294 293 293
298 299 299 298 292 292 293 293 293 294 296 303 304 307 309 310 309 311 309 308 311 311 310 308 307 306 306 306 306 306 305 305 305 303 303 306 311 308 305 304 303 300 300 302 305 308 308 307 305 307 305 299 295 299 299 298 299 298 297 296 295 296 296 296 295 295 295 295 295 294 294 294 294 292
297 297 298 298 294 292 292 293 293 294 294 297 302 300 300 300 302 305 308 306 304 307 306 306 305 305 305 305 305 305 304 303 303 303 302 303 306 307 303 299 299 298 300 302 300 308 305 307 306 306 304 303 300 297 298 299 299 297 297 296 295 295 295 295 294 293 294 294 294 294 294 294 294 293
297 297 297 297 295 293 293 292 293 293 294 295 301 297 294 295 296 304 306 306 306 306 305 305 304 304 303 303 303 303 304 304 304 303 303 302 302 303 303 301 300 299 299 303 299 305 301 300 304 301 299 300 299 299 297 297 299 299 298 297 297 296 296 295 294 293 292 292 292 292 292 294 294 295
297 298 298 298 295 293 293 293 293 293 294 296 296 293 294 295 296 300 303 302 304 303 303 302 302 302 302 302 302 302 302 302 303 303 303 303 303 302 302 303 303 302 302 302 305 303 300 298 299 298 298 301 299 298 297 296 297 299 298 298 298 298 298 296 295 294 294 293 293 294 293 292 293 293
298 297 297 296 293 293 293 294 294 294 294 295 293 294 294 296 297 302 302 301 301 299 300 301 301 301 302 302 302 301 301 301 302 303 302 301 301 300 300 300 300 301 301 301 301 301 301 299 298 298 300 300 298 296 295 296 297 296 294 295 295 296 297 297 295 295 295 295 294 293 293 292 292 291
297 294 293 293 293 293 294 294 295 295 294 293 294 294 295 300 301 301 301 300 300 299 298 299 299 300 300 301 301 302 302 302 302 301 301 301 300 300 300 300 300 300 302 302 301 300 300 299 298 298 298 298 296 295 295 294 293 293 294 293 292 294 294 295 296 296 296 295 293 293 294 294 293 292
293 293 293 293 294 294 295 297 297 296 296 294 294 295 297 300 299 299 299 299 298 298 298 297 298 299 300 300 301 302 303 301 300 300 299 299 299 298 298 298 298 299 299 300 300 300 300 299 298 298 297 296 296 294 293 293 291 291 292 293 293 293 292 292 292 293 293 292 292 292 291 292 293 293
295 295 295 294 293 293 293 293 293 294 294 296 297 298 298 298 298 298 298 298 298 297 297 296 297 297 298 299 298 298 298 297 298 299 299 299 298 298 297 296 295 296 298 299 299 299 299 299 299 298 296 295 296 295 294 294 292 291 291 291 291 288 290 291 292 290 290 290 291 291 292 293 294 294
295 295 293 294 296 295 295 296 296 296 296 295 294 296 297 297 297 296 296 296 297 297 297 296 296 296 297 297 297 296 296 296 296 298 298 298 297 296 296 293 292 294 295 297 298 298 295 296 295 295 296 296 294 293 292 291 290 289 289 288 288 289 289 289 288 290 290 289 289 289 289 290 292 293
293 293 293 292 293 293 290 290 293 293 293 292 294 295 295 295 296 296 295 294 294 294 295 294 293 292 294 295 296 294 295 294 295 295 297 297 297 297 296 294 294 294 294 294 295 294 294 293 294 293 293 293 294 293 291 288 289 289 288 287 288 288 289 288 289 289 289 289 288 289 288 289 290 292
289 288 289 290 291 292 292 291 291 291 291 291 291 292 291 293 294 294 294 294 293 290 290 292 291 290 289 291 294 294 293 293 294 293 293 294 295 294 293 293 294 294 293 294 293 293 293 293 292 292 292 292 293 292 291 289 288 288 288 288 288 287 287 289 288 289 289 288 287 285 285 286 288 289
288 288 288 289 289 290 291 291 291 292 292 291 291 291 291 291 291 289 292 293 290 289 288 288 288 288 290 289 289 289 289 290 293 293 292 293 293 294 294 293 293 293 293 293 293 294 293 291 291 290 290 290 290 291 294 292 289 288 288 288 287 287 287 288 287 288 288 287 286 283 285 284 286 288
287 287 288 289 289 289 289 288 289 291 291 291 291 291 289 290 289 290 291 292 292 289 288 288 288 288 289 289 288 288 288 287 288 289 289 289 289 291 292 291 290 290 291 292 293 294 294 292 290 288 285 284 285 284 286 292 292 288 287 284 286 285 287 286 286 287 286 285 284 283 282 280 283 287
287 288 289 291 291 291 289 290 290 291 292 291 290 290 289 290 291 292 293 289 290 288 288 288 287 287 287 287 287 287 287 287 287 287 287 288 288 289 288 287 287 289 289 289 290 290 292 291 290 288 286 285 284 283 283 286 289 291 289 286 284 285 283 283 284 283 284 284 283 283 283 281 282 285
286 287 289 290 290 290 289 289 289 290 291 290 290 290 290 290 290 291 290 291 289 288 288 288 288 287 288 288 288 288 287 287 287 287 286 287 287 287 288 287 287 287 287 287 289 288 289 290 289 288 287 285 283 283 283 284 284 286 290 287 284 284 284 283 282 281 283 284 285 284 282 283 284 285
288 287 288 288 288 288 288 287 287 288 289 289 289 290 290 290 289 288 288 288 289 288 288 288 288 287 287 287 287 287 287 287 287 286 286 286 287 287 287 287 286 286 287 286 287 287 288 288 287 287 287 285 284 285 285 284 282 285 288 290 287 283 282 283 280 281 281 281 283 282 282 283 286 288
286 286 287 288 287 288 287 288 288 289 289 289 289 290 290 289 288 288 288 287 288 288 287 287 287 288 288 287 287 287 287 287 286 286 286 285 286 286 286 286 286 286 286 285 285 284 286 285 287 286 284 284 286 286 285 285 283 284 284 287 289 287 285 281 281 280 281 283 281 278 277 278 281 280
286 286 286 287 288 287 287 288 289 290 290 289 289 289 289 289 288 287 287 288 287 287 287 286 287 287 287 287 287 287 286 286 286 286 286 286 286 286 286 286 286 286 285 284 284 284 285 287 288 287 288 286 286 286 285 283 282 283 283 283 287 289 288 286 283 281 282 283 282 280 279 279 280 276
286 286 286 286 288 288 288 287 288 289 289 289 288 288 287 287 286 289 288 288 288 287 286 286 286 286 286 286 286 286 286 286 286 285 285 285 285 285 285 285 285 284 285 284 286 285 286 288 286 288 287 286 286 284 282 282 280 281 281 281 281 286 289 289 289 286 282 282 279 281 280 278 277 277
285 285 286 285 286 287 286 286 287 288 288 289 288 288 287 287 287 287 287 288 287 286 285 286 286 285 285 285 286 286 287 286 285 285 285 284 284 285 284 284 284 285 285 285 284 285 285 286 287 285 285 284 282 283 282 282 281 281 283 281 281 280 280 288 290 289 288 289 287 283 280 280 278 279
285 285 284 284 284 285 285 285 285 286 287 287 288 288 287 287 287 287 287 287 287 286 286 286 287 287 286 286 286 286 285 285 285 285 284 284 284 284 284 284 284 284 284 284 285 284 284 285 285 285 284 283 282 281 281 281 281 281 280 281 281 279 281 281 281 283 285 286 287 288 289 288 286 287
284 284 283 283 283 284 284 284 285 284 286 285 286 286 287 287 286 286 287 287 286 287 287 287 287 287 287 286 285 285 285 286 285 284 284 284 284 284 283 284 284 284 284 283 283 283 283 283 283 283 282 282 281 282 281 282 280 280 282 279 281 279 280 282 282 278 278 281 285 287 288 288 288 288
Wind_Speed
8 7 7 6 6 6 6 6 6 6 6 6 8 8 10 9 8 7 6 6 6 6 8 5 5 8 7 5 4 7 7 9 11 8 8 8 7 10 12 12 11 9 11 10 9 8 8 9 8 11 12 11 12 15 14 12 9 8 6 7 9 10 9 9 10 10 11 12 11 10 10 10 10 9
7 7 8 7 6 6 6 7 7 7 7 7 7 7 5 6 9 6 8 6 5 5 6 6 7 8 9 7 7 6 6 11 12 8 8 8 8 12 12 12 11 11 12 11 10 9 8 9 9 11 14 15 15 15 14 13 11 9 10 10 10 11 9 9 10 11 12 11 10 10 10 10 9 9
7 7 7 5 5 4 6 7 7 5 7 7 7 6 5 5 5 7 6 5 3 6 6 6 5 9 10 8 7 7 7 10 12 9 8 8 11 13 11 13 12 12 12 12 11 9 9 9 10 11 13 14 15 15 14 11 11 12 11 11 12 12 10 10 10 12 13 12 11 11 10 10 9 9
5 6 7 6 4 5 6 6 6 6 5 5 5 6 5 5 5 6 5 4 4 0 4 6 5 7 10 11 11 9 7 10 15 8 8 9 11 9 7 12 13 13 12 12 10 10 10 8 11 11 13 14 13 13 14 14 13 12 11 13 13 12 11 10 10 12 13 12 12 11 10 10 9 9
4 5 6 7 7 2 4 4 4 5 5 3 2 6 4 5 3 5 3 4 6 5 4 4 4 7 10 8 10 9 8 8 8 5 7 9 8 7 7 7 11 12 13 12 11 10 10 10 13 13 13 14 15 15 14 14 13 12 13 13 13 13 12 11 10 11 12 11 11 10 10 9 8 8
3 3 4 4 4 8 7 4 4 3 8 7 6 8 7 6 6 7 7 6 8 8 4 6 7 7 8 7 8 9 9 8 7 6 7 7 8 7 7 6 7 11 11 12 11 10 10 11 12 13 13 14 14 14 14 14 13 13 14 14 13 12 12 11 10 10 11 10 10 10 9 9 8 9
3 3 4 3 1 1 2 1 2 4 2 9 8 6 4 5 6 6 6 8 7 9 8 9 9 8 9 8 9 9 9 9 9 8 8 7 6 5 6 6 4 9 10 12 10 10 11 11 12 13 13 14 14 14 13 14 13 12 13 13 12 11 11 11 10 9 10 10 9 9 8 9 9 9
2 1 3 5 4 2 1 3 2 1 2 2 5 9 9 9 9 8 7 6 7 7 9 8 10 9 10 4 8 8 7 9 8 8 8 7 7 7 7 7 6 8 10 11 10 10 11 11 11 12 13 13 13 13 13 13 12 12 12 11 11 11 11 11 10 9 8 9 10 9 9 9 10 10
3 4 2 1 2 0 0 5 4 3 3 4 3 7 9 9 8 6 7 6 6 8 9 7 6 7 6 5 7 8 8 7 7 7 9 8 7 8 6 6 6 8 9 9 9 10 10 10 10 11 11 12 12 12 13 13 12 12 11 11 11 10 10 9 9 9 8 8 9 10 10 9 10 11
1 1 1 2 3 6 1 2 6 7 9 8 6 5 5 6 4 2 1 2 6 9 8 9 6 5 7 6 6 9 9 9 7 7 7 7 6 7 6 4 4 5 6 5 5 6 8 10 11 12 11 12 12 12 12 11 11 10 10 10 10 9 9 9 9 9 9 8 8 8 9 10 10 11
2 3 2 1 1 5 7 8 4 5 9 7 6 5 4 3 6 4 1 6 6 2 6 5 7 8 5 7 8 8 9 9 7 8 8 7 6 6 7 6 4 5 4 4 7 7 9 9 8 10 11 11 11 11 10 9 9 9 10 10 9 10 10 10 9 9 8 8 8 7 6 7 10 11
2 1 1 2 5 5 6 6 9 8 7 6 5 5 5 5 7 6 5 5 5 0 3 5 5 6 8 6 6 6 7 7 4 6 6 9 8 6 5 7 10 6 6 6 6 4 4 5 5 6 6 8 9 9 8 9 9 10 10 10 11 10 9 9 8 8 7 7 7 7 7 6 6 7
3 4 3 2 2 5 5 8 9 7 5 5 6 4 4 5 4 5 3 5 6 3 2 4 3 7 7 8 7 6 7 10 10 6 5 6 9 8 7 3 5 10 10 6 5 6 7 6 5 5 4 3 4 5 7 6 9 9 9 10 9 9 9 9 9 8 8 8 8 8 8 8 7 7
6 3 2 3 9 11 11 10 10 11 9 3 4 6 4 5 5 5 5 5 6 7 6 4 5 8 4 3 2 5 1 2 3 4 5 9 7 7 4 4 1 3 5 8 7 4 4 5 5 5 4 4 5 4 5 5 7 8 10 10 10 10 8 7 6 6 6 6 5 5 5 5 5 6
5 5 5 5 7 8 7 8 11 12 10 10 12 11 6 4 8 8 8 6 7 7 5 4 6 9 9 6 5 5 3 3 5 5 4 8 9 8 9 6 1 2 5 2 4 3 5 5 5 4 4 3 2 2 4 7 10 11 11 9 7 7 6 6 5 4 4 4 4 4 4 5 5 5
7 7 8 9 8 8 8 8 8 12 15 13 12 11 11 10 9 7 3 3 2 4 6 5 5 5 1 4 6 4 3 3 4 3 6 4 7 8 5 4 6 1 4 6 6 4 3 5 6 5 3 3 3 3 3 6 6 7 8 8 8 8 7 6 5 5 4 4 4 3 3 3 4 4
10 9 9 9 8 7 11 7 8 8 9 11 11 11 13 14 13 11 9 11 8 5 5 4 3 5 3 3 4 3 4 7 2 1 3 3 5 5 7 5 3 2 3 9 6 4 2 2 5 7 3 3 3 5 8 11 12 13 13 12 11 10 9 8 7 6 5 5 5 4 3 3 3 3
11 10 9 8 8 7 6 6 4 9 8 7 8 9 8 8 10 11 11 8 7 5 4 6 3 1 3 3 3 8 8 8 6 6 3 3 5 6 5 3 4 2 1 9 7 5 3 3 6 6 3 3 4 4 7 13 13 14 14 13 13 12 11 11 10 8 7 7 6 5 5 4 5 5
9 10 9 9 8 7 8 6 6 7 7 7 10 10 10 9 9 10 9 7 7 8 8 6 6 5 5 4 5 5 5 8 8 7 7 6 6 9 9 6 3 5 5 3 6 5 5 1 5 5 4 3 5 4 4 9 12 13 13 12 12 12 12 11 10 9 9 9 8 7 7 8 9 9
10 11 10 10 10 9 10 10 12 7 7 7 10 10 9 10 11 11 8 11 13 10 8 6 7 6 6 6 5 5 7 6 7 6 7 7 8 9 6 6 1 2 2 2 3 6 5 2 8 4 3 4 5 4 4 6 9 11 12 12 11 12 11 11 11 11 11 10 10 9 10 10 11 10
12 13 10 9 9 11 10 12 11 10 8 8 9 10 10 9 10 9 8 11 13 15 15 13 12 13 14 14 14 11 9 7 8 8 8 7 7 8 6 3 3 2 1 3 1 8 8 4 6 6 2 3 5 4 4 4 5 7 10 11 11 11 10 10 11 12 12 12 11 10 10 10 10 10
10 16 26 18 10 11 10 15 17 15 9 8 8 8 8 9 8 5 4 4 4 6 10 12 13 14 14 16 17 16 13 10 4 8 10 8 7 6 7 5 3 2 2 2 0 8 7 7 7 9 5 4 3 4 3 4 4 6 8 10 10 11 11 10 11 11 11 11 11 10 11 10 9 6
10 11 15 20 16 12 13 20 19 18 12 7 7 5 8 8 8 4 2 4 7 6 8 8 8 10 11 10 10 12 17 15 11 6 4 6 7 7 6 7 6 5 1 1 1 8 8 9 7 10 6 4 2 2 2 3 3 4 5 6 6 8 10 10 11 11 10 10 10 10 10 9 7 4
11 12 11 15 19 18 19 19 19 17 16 11 10 9 7 7 8 3 6 7 6 7 8 7 8 8 7 8 9 9 9 10 9 8 6 3 5 7 7 6 4 5 3 3 1 6 7 9 9 5 4 9 5 3 1 2 2 3 4 5 5 5 7 8 6 8 10 10 10 10 9 8 5 4
11 11 11 10 17 19 20 19 19 19 17 14 11 10 9 7 5 6 7 8 10 8 7 7 7 7 7 8 8 8 8 8 7 8 8 6 4 6 6 7 6 5 1 1 3 3 6 7 8 4 2 4 7 7 3 2 2 3 3 6 6 3 3 3 3 4 5 7 8 8 9 8 6 5
10 9 9 9 14 19 19 19 19 19 18 18 12 13 15 16 16 10 7 6 7 7 7 6 6 6 7 8 7 7 7 7 7 8 8 8 9 7 5 5 6 5 2 1 5 4 7 4 7 6 4 6 6 7 7 3 4 4 3 2 4 5 4 4 3 3 2 2 3 4 6 8 7 6
8 8 9 10 15 16 17 18 19 18 18 15 14 18 18 17 17 13 8 8 8 7 7 7 6 5 6 6 6 6 6 5 6 7 8 8 9 9 9 8 6 5 3 3 3 3 3 3 2 6 6 9 11 6 6 6 4 4 3 3 3 4 4 5 5 4 4 4 4 6 5 5 6 6
7 7 7 10 15 16 16 16 17 17 17 14 17 17 17 16 13 9 9 8 7 6 7 7 6 5 4 4 6 5 4 5 5 6 6 7 7 7 6 7 7 6 6 6 6 5 6 7 4 3 9 11 11 10 7 4 6 6 6 3 4 6 6 5 5 4 4 3 4 3 3 3 3 4
6 8 11 13 14 14 14 15 14 13 15 17 15 16 16 13 9 9 8 7 7 8 6 5 5 5 4 3 2 3 4 5 6 6 5 6 6 6 7 7 7 7 6 5 6 6 6 7 7 6 7 7 9 7 8 7 6 5 5 6 4 5 6 6 6 6 5 5 5 6 6 6 5 4
11 11 11 11 11 11 10 9 8 8 9 14 15 15 13 8 8 7 8 7 8 7 6 6 7 6 6 5 5 4 5 5 5 4 4 5 5 5 6 8 7 7 7 6 6 6 7 7 7 10 10 8 9 10 8 9 6 6 5 5 4 1 2 3 3 3 5 4 2 2 1 1 2 3
6 8 8 7 8 8 11 11 9 9 9 9 8 7 7 6 6 6 6 6 6 6 5 5 5 4 5 5 7 6 6 5 4 2 3 4 3 5 5 6 5 6 6 6 7 7 7 6 6 8 11 8 7 8 7 7 6 6 7 6 6 3 1 5 6 6 5 6 6 6 7 6 6 5
6 7 8 10 8 8 8 8 7 6 6 6 5 6 6 5 5 5 7 7 6 4 3 4 4 5 6 5 5 5 5 3 3 2 2 2 3 2 4 5 4 4 6 7 8 9 10 8 8 7 6 6 7 5 7 8 8 8 6 6 6 5 6 6 6 6 3 3 5 5 4 5 6 6
7 8 9 8 9 8 8 7 7 7 7 6 5 7 6 6 6 6 6 5 5 5 5 5 4 4 5 6 5 5 6 5 5 2 3 2 4 1 1 5 5 5 6 7 7 7 8 9 9 10 9 8 7 9 10 8 6 6 7 6 7 6 4 5 6 4 2 5 5 5 6 6 4 3
7 7 7 6 6 7 7 7 7 6 6 6 7 6 5 6 6 5 5 5 5 5 4 4 5 6 4 6 6 6 7 7 5 4 4 2 3 5 3 5 5 4 5 6 7 7 7 7 8 9 11 11 9 8 7 9 6 5 5 5 6 6 4 4 5 4 4 5 6 6 6 6 5 4
7 7 8 7 8 7 8 8 8 7 6 6 5 6 6 5 6 4 5 5 4 5 5 5 4 4 6 6 6 6 4 3 5 5 4 4 3 6 6 5 5 5 5 5 6 5 6 6 8 8 7 7 9 8 10 5 7 5 6 6 5 5 4 3 5 6 5 6 5 5 5 6 6 3
8 7 6 6 6 7 8 6 6 7 7 7 7 6 4 4 4 5 5 4 4 4 4 5 4 5 5 4 4 4 4 3 4 5 4 5 5 5 4 4 4 3 2 3 4 4 4 5 6 7 7 5 6 5 5 11 7 5 6 2 2 4 4 4 4 5 6 6 5 5 5 2 2 1
8 8 8 9 8 7 7 7 7 7 7 7 7 7 7 6 6 6 5 4 4 4 3 3 3 3 4 4 3 4 5 5 5 5 5 5 6 7 6 5 6 7 7 5 4 3 3 5 6 8 8 7 8 7 3 2 9 7 7 5 2 3 3 3 5 6 3 3 5 6 4 3 1 0
7 7 8 8 8 8 8 7 8 7 8 7 6 6 6 5 5 5 5 7 7 5 3 4 4 5 3 1 3 5 4 4 5 5 5 5 5 6 6 6 6 7 7 6 6 5 4 5 6 6 8 9 8 7 5 2 2 4 3 6 5 2 3 6 5 4 3 2 4 1 3 7 2 1
6 7 7 7 7 6 7 6 6 7 7 7 6 5 6 6 5 5 5 5 5 5 5 5 5 4 4 4 3 5 5 5 6 6 5 5 4 5 6 6 6 5 8 6 5 5 6 5 5 5 7 8 8 8 6 5 3 2 4 2 6 5 3 5 3 2 3 3 3 2 3 1 3 5
6 6 6 6 6 6 6 6 6 6 7 6 6 6 5 5 5 5 6 5 5 5 4 3 4 6 5 4 4 4 5 5 6 6 6 5 5 6 6 5 6 6 7 6 6 5 6 6 6 6 5 6 6 7 7 6 3 0 1 2 6 6 5 3 3 3 1 1 0 4 3 2 2 1
7 7 6 6 6 6 7 7 6 6 7 7 7 7 8 6 6 6 6 6 5 6 6 6 6 5 4 3 1 5 5 4 5 6 6 6 6 5 6 7 6 6 7 5 5 5 5 5 6 7 6 6 7 7 7 5 3 1 1 1 5 4 3 6 5 4 3 1 2 1 1 0 0 1
7 7 6 6 7 6 7 7 7 7 7 8 7 7 7 7 7 9 8 8 8 7 6 6 6 5 5 4 4 4 5 6 6 5 4 6 6 5 5 5 6 4 6 6 4 4 2 1 3 5 8 7 6 6 5 6 5 2 2 2 4 7 6 3 3 5 4 5 3 1 0 2 1 1
6 6 6 4 5 5 6 6 6 6 5 6 6 6 7 8 8 9 7 8 7 8 7 7 7 6 4 4 3 6 7 7 6 5 4 4 5 6 5 4 3 4 5 4 2 0 2 3 5 6 5 5 3 5 6 6 4 3 1 2 2 1 2 3 3 3 1 3 5 5 4 3 3 0
5 6 5 4 4 4 4 5 5 6 6 5 6 6 7 6 7 7 6 6 7 7 7 7 7 7 7 5 3 6 6 6 6 6 5 4 4 5 5 4 4 4 4 3 3 4 3 6 5 5 6 4 3 5 7 5 5 5 5 1 1 2 1 1 1 3 4 6 7 7 7 8 8 8
5 4 4 4 4 6 5 4 5 5 5 6 6 6 5 5 5 5 6 6 6 7 7 7 8 7 7 6 4 4 3 3 4 4 5 4 4 4 4 5 5 5 6 4 5 2 2 4 4 5 4 2 2 4 5 6 5 3 0 1 0 2 0 0 0 2 4 6 7 8 10 9 10 10
Wind_Direction
197 198 206 207 198 191 178 175 172 167 166 172 177 180 179 171 157 169 178 195 179 169 174 174 204 170 191 191 196 166 168 167 167 170 171 172 172 182 179 181 185 179 174 171 173 172 174 169 169 166 156 154 148 147 146 148 151 156 163 146 132 135 143 147 151 153 154 137 119 112 115 117 115 112
186 187 200 208 199 192 178 183 177 173 172 171 179 182 175 166 169 161 169 188 179 155 164 170 180 182 190 181 190 167 167 168 169 170 174 175 178 181 185 185 187 185 178 179 176 178 179 176 168 160 159 157 152 151 151 155 157 163 165 146 140 145 151 156 156 164 137 127 130 131 132 132 131 125
171 183 203 207 199 181 189 183 184 174 171 177 176 170 149 152 153 150 145 140 190 152 178 181 180 176 175 179 176 163 172 175 175 173 174 179 178 174 186 187 190 185 183 179 178 176 179 182 171 163 160 159 157 157 159 158 163 172 164 153 151 155 159 161 165 158 144 145 146 145 145 144 140 133
178 171 192 207 208 197 201 189 184 172 152 163 184 162 140 159 159 140 136 150 110 40 161 176 186 153 162 166 177 170 177 179 181 171 170 170 161 167 180 193 190 184 185 180 181 178 177 185 178 170 166 164 161 163 164 164 168 172 156 161 161 162 163 165 170 164 156 156 157 157 156 155 151 143
190 196 190 195 211 216 235 203 192 148 147 143 68 100 155 186 151 126 112 137 159 213 185 116 136 159 165 165 172 169 172 168 185 178 158 149 159 167 167 178 195 189 187 178 184 181 176 186 186 175 169 164 164 166 167 166 170 164 162 169 170 166 167 171 172 171 165 163 164 162 164 160 158 149
183 177 214 210 204 189 223 228 225 152 153 143 175 170 171 158 169 167 161 187 174 183 158 139 181 166 177 172 182 172 169 166 171 153 152 159 163 170 160 169 187 193 189 175 181 178 174 184 189 169 171 165 165 167 169 169 171 167 169 174 175 172 172 175 177 173 169 170 166 166 165 161 158 154
152 181 222 220 77 2 201 74 40 32 111 165 172 131 126 168 191 179 180 180 188 172 174 165 174 171 181 192 178 174 173 163 166 154 158 158 164 164 162 174 173 182 185 171 177 171 170 182 178 166 170 167 169 170 172 173 174 171 173 176 178 178 176 179 181 179 177 173 170 168 167 162 164 166
147 83 37 36 53 65 157 130 76 121 148 203 169 155 164 192 193 188 189 203 176 174 155 178 170 172 167 192 165 164 156 155 163 165 158 159 161 162 173 178 179 176 177 170 173 167 169 176 172 171 171 170 170 172 175 176 177 174 174 176 180 181 182 182 184 184 187 180 179 176 173 171 174 180
48 65 107 126 268 138 138 120 178 187 140 231 222 152 168 191 197 186 188 200 179 167 167 158 169 157 163 165 159 158 154 160 163 161 159 169 168 166 171 168 170 153 169 165 170 166 168 176 176 174 171 170 172 176 179 180 179 178 174 177 183 184 184 184 185 189 192 192 184 190 185 182 188 194
105 192 195 114 96 80 80 205 189 165 179 195 201 184 175 184 174 104 272 238 179 168 163 157 138 151 164 149 163 172 166 165 168 165 168 168 164 148 152 159 147 157 166 156 164 170 173 181 179 176 173 173 178 182 184 181 179 176 175 180 183 184 187 188 189 190 194 198 196 200 194 187 197 204
176 163 151 107 194 165 171 191 172 173 186 192 192 169 161 160 100 108 108 41 340 135 150 141 155 153 178 157 163 177 177 172 171 165 156 170 169 159 155 143 132 153 173 178 182 184 181 179 179 180 175 177 181 183 181 176 170 174 180 179 180 187 191 192 191 192 194 198 201 205 210 197 201 212
16 331 112 158 204 222 191 176 183 201 165 179 159 127 129 135 144 155 134 114 102 208 186 137 165 170 167 167 165 163 162 170 185 183 149 161 164 168 165 168 156 169 165 173 178 165 152 159 163 152 170 179 180 179 173 172 173 178 179 182 187 189 189 190 189 189 192 195 200 204 210 209 218 224
93 35 17 301 263 215 219 172 174 182 167 162 141 146 125 131 139 140 132 158 118 135 149 197 190 177 164 168 160 163 173 186 187 199 140 152 163 157 148 192 180 161 170 181 164 180 175 154 150 151 159 183 177 177 169 174 179 177 180 185 186 187 186 185 184 184 186 190 192 197 200 205 212 221
73 75 76 51 58 53 44 27 21 24 14 349 138 131 148 146 143 164 168 162 137 147 147 131 139 121 74 70 141 149 81 34 74 126 130 142 145 134 127 107 163 167 156 158 178 169 141 127 125 143 159 172 177 177 176 182 177 184 182 183 186 187 185 179 179 182 188 192 196 199 201 199 203 206
40 20 17 29 36 41 47 52 60 72 57 56 74 79 85 130 171 170 170 179 163 159 140 146 126 134 140 121 106 86 87 40 104 118 110 131 139 151 149 153 52 111 144 121 110 131 151 143 121 93 84 85 117 132 180 182 181 183 188 185 168 153 152 158 155 154 154 158 170 181 190 196 197 200
41 35 28 28 27 21 34 64 65 69 70 62 68 75 79 70 48 44 117 159 149 132 131 106 109 84 40 134 118 121 111 65 17 77 104 111 137 137 124 120 147 218 159 136 113 78 36 95 103 90 57 47 57 44 115 150 143 139 130 124 125 123 122 124 131 137 137 143 148 157 175 182 185 186
41 39 23 18 22 9 17 58 87 83 78 73 54 62 62 53 50 53 79 126 148 138 120 142 131 133 184 201 127 140 146 129 119 353 78 125 114 117 120 139 127 22 121 120 109 103 75 83 107 99 53 55 66 70 73 88 95 98 101 103 104 104 102 98 94 93 100 109 113 119 124 134 155 160
34 35 29 23 22 7 11 357 30 68 65 64 57 42 44 49 40 44 51 69 73 55 109 110 133 190 189 167 130 141 149 148 164 152 136 126 114 101 82 97 103 60 59 128 123 100 76 71 106 99 89 71 70 63 100 105 106 109 111 112 112 114 111 107 108 104 103 102 100 101 106 112 115 118
29 21 18 23 22 25 33 359 355 48 59 74 79 67 53 52 54 46 32 41 66 76 64 64 79 56 56 98 110 132 153 146 154 160 162 146 123 109 111 77 59 54 19 100 111 133 142 138 82 75 81 80 75 59 68 104 112 111 112 112 113 109 106 106 105 108 106 102 98 101 103 103 104 103
26 27 20 18 20 23 34 40 66 79 84 69 74 72 68 63 60 52 23 57 72 68 75 82 90 89 80 72 73 94 119 114 108 108 98 97 108 117 110 114 12 57 340 29 116 113 132 133 114 100 55 72 81 60 61 61 94 108 110 112 113 116 119 119 116 110 106 103 103 103 107 108 110 113
30 29 18 20 22 29 21 7 34 62 81 72 70 74 73 70 64 64 47 40 68 88 93 94 87 82 73 70 68 67 79 106 125 118 116 137 140 130 126 115 100 86 313 350 83 122 126 149 121 114 84 71 85 85 66 54 73 112 122 121 117 115 114 117 118 115 111 108 106 104 106 109 110 109
34 37 35 34 27 35 19 24 29 32 58 71 74 73 66 63 66 55 64 79 57 87 95 84 81 80 77 70 66 63 61 56 58 142 153 165 147 141 135 134 123 121 31 345 57 112 129 131 128 112 113 87 52 71 79 93 102 101 97 101 115 122 124 122 116 115 113 116 119 118 121 121 118 106
36 32 33 29 25 31 33 36 35 30 33 43 48 64 86 74 62 22 32 81 75 61 59 47 48 47 46 54 62 58 55 48 43 40 100 139 138 134 125 122 125 84 352 271 220 121 140 137 159 137 136 104 73 44 93 119 125 112 118 122 117 123 124 121 119 118 121 122 125 128 130 132 126 127
32 32 29 29 24 29 38 43 42 38 42 49 37 28 40 63 65 31 45 34 69 66 65 63 55 56 50 56 57 54 51 48 42 40 34 52 118 130 137 144 133 138 184 268 186 125 147 151 162 206 143 138 154 165 169 181 164 164 152 122 112 104 103 105 108 129 134 136 135 137 141 143 139 127
38 31 28 29 25 32 34 39 42 42 39 45 54 42 45 16 1 40 62 40 50 65 61 59 55 52 52 51 53 56 55 49 45 43 39 43 62 110 123 117 105 95 108 245 193 115 138 161 162 172 118 98 123 138 176 163 182 177 165 131 122 131 112 94 110 113 114 130 139 145 155 167 176 147
39 34 31 30 28 34 37 37 37 39 43 40 46 39 38 32 34 35 37 47 52 60 59 61 56 53 58 54 51 52 53 55 55 54 52 50 58 56 60 82 105 104 78 358 138 115 114 124 166 159 150 112 130 134 138 178 195 190 153 114 122 152 142 140 116 116 124 133 152 165 181 181 195 181
37 30 33 29 32 37 37 39 38 36 36 42 37 36 35 33 31 36 38 32 39 51 59 61 59 51 58 69 64 66 68 58 61 66 65 63 64 63 57 56 61 92 115 81 86 120 117 104 129 146 133 131 133 131 132 141 141 118 107 143 147 164 172 158 154 158 173 183 189 196 192 198 195 199
46 38 36 37 35 36 35 35 37 38 37 37 34 34 33 33 33 36 35 35 34 42 51 54 51 43 35 59 72 74 79 73 70 68 68 70 68 72 71 66 66 58 61 63 70 77 98 109 83 77 130 137 138 141 135 87 106 129 127 144 144 168 178 170 155 164 191 183 168 164 164 201 196 182
47 60 56 49 43 37 34 30 30 30 29 31 35 35 34 33 35 31 33 33 34 39 36 38 38 32 19 33 45 73 70 67 58 59 51 56 63 72 71 65 58 50 54 59 62 67 85 95 100 90 88 110 116 114 118 127 129 137 138 123 125 150 147 155 149 160 179 174 179 173 197 189 187 182
31 30 37 46 49 48 42 40 36 31 24 23 27 28 30 34 33 27 28 27 33 29 24 21 15 8 7 16 20 39 51 63 76 86 79 74 55 63 71 66 44 38 41 45 55 63 74 83 95 99 95 92 105 112 118 117 120 155 143 137 139 48 27 81 120 149 143 178 197 210 289 211 198 122
27 33 32 36 36 43 49 53 53 47 32 30 26 28 28 31 30 30 32 30 29 21 17 18 6 360 8 29 40 41 51 48 18 32 105 100 94 74 79 90 75 59 38 45 51 50 58 63 62 91 105 108 104 113 127 118 112 80 50 51 60 90 331 43 33 20 26 47 52 53 54 61 80 121
19 32 27 29 23 24 24 24 28 31 37 37 30 26 26 30 31 32 34 36 29 15 6 8 2 1 10 18 11 31 51 63 58 51 106 111 106 90 109 84 84 79 64 60 58 52 55 55 65 57 75 102 108 80 67 73 88 92 86 74 84 72 49 57 35 18 7 72 60 49 43 60 82 89
26 30 32 26 25 26 26 21 20 15 18 18 19 26 20 15 21 26 32 27 10 358 15 17 9 9 7 9 359 16 32 8 10 32 101 118 126 119 69 116 133 115 108 94 80 71 72 69 64 74 74 63 75 100 101 86 66 80 92 72 74 60 41 36 50 21 351 46 53 54 45 29 35 94
47 35 40 28 30 26 28 26 16 8 10 10 9 3 5 10 16 14 17 16 360 2 22 12 27 12 19 23 13 25 17 359 4 12 50 76 124 132 140 128 135 116 110 117 113 112 100 91 85 75 74 71 63 57 85 105 103 100 92 93 76 69 34 46 41 44 54 88 96 63 33 27 32 47
43 40 45 34 32 26 33 35 26 15 15 3 4 354 354 4 3 353 11 6 18 17 15 20 22 28 48 40 34 36 8 359 344 15 21 55 72 143 155 142 143 144 134 121 127 134 121 113 99 84 69 68 68 55 39 61 117 92 92 72 90 80 45 28 60 43 51 37 54 75 48 41 38 16
28 26 39 36 33 33 36 22 25 24 22 15 10 356 359 351 348 355 353 332 27 25 34 45 36 37 51 45 36 39 31 26 16 8 20 35 71 93 82 73 90 90 101 118 118 97 92 91 103 99 90 65 78 53 22 12 42 119 83 65 36 75 47 57 54 58 55 55 46 77 74 55 27 23
40 28 35 31 24 28 25 20 18 13 18 19 20 19 15 1 350 1 344 346 28 24 12 54 45 17 30 24 14 22 32 35 39 30 20 6 53 80 95 85 88 88 85 74 82 64 90 107 105 111 105 94 92 99 55 321 23 37 114 104 61 31 74 50 55 51 31 83 56 69 92 89 35 310
50 45 46 40 33 25 20 15 15 14 10 6 12 13 11 1 356 355 353 18 359 352 348 20 10 17 5 15 63 51 50 54 64 51 31 35 57 58 78 94 84 84 84 71 65 60 64 103 118 125 122 121 124 123 114 2 17 356 4 121 114 118 93 69 59 73 36 27 96 118 99 70 72 170
52 53 49 50 40 36 27 11 18 12 4 5 2 358 354 351 350 355 8 2 0 357 349 12 6 345 355 10 58 103 82 63 58 54 52 42 65 90 83 86 82 70 82 72 61 60 66 79 102 117 124 134 144 161 149 127 131 172 343 80 125 88 70 111 85 35 51 30 355 355 55 28 74 92
26 48 51 51 39 36 27 18 14 6 2 360 356 353 346 344 345 346 349 347 359 349 347 343 355 354 357 34 61 80 95 98 97 80 67 63 62 88 97 95 101 99 85 87 84 81 83 94 105 118 140 162 158 145 142 129 127 328 28 115 136 138 165 128 135 122 15 286 46 38 352 2 80 332
22 29 28 44 40 29 24 13 11 7 358 354 357 351 355 348 358 342 339 349 6 7 352 342 359 356 325 341 130 125 106 94 81 73 76 73 71 76 104 110 93 96 99 93 108 104 116 146 147 135 111 102 108 106 76 73 105 150 122 271 312 313 199 156 155 146 164 173 111 89 33 3 344 354
31 24 17 24 35 19 20 20 14 11 4 2 358 358 351 356 360 13 16 13 18 17 18 17 5 358 1 30 77 77 81 77 75 72 77 87 82 70 57 79 106 106 104 125 133 157 196 87 120 104 104 110 98 99 138 157 177 225 267 296 299 303 313 12 122 150 157 140 118 125 308 350 33 356
33 31 26 13 28 26 23 21 18 16 13 6 7 4 7 8 10 16 19 18 11 14 356 353 7 11 16 22 63 91 87 89 95 94 88 84 88 82 76 77 101 115 118 144 200 106 7 62 79 77 83 82 109 109 147 183 184 186 216 297 271 310 319 356 58 57 81 200 177 175 167 161 119 250
31 29 20 13 18 14 19 16 13 16 14 14 8 15 25 9 19 21 27 22 19 14 2 1 3 11 6 352 54 89 103 123 123 118 117 116 107 102 101 94 92 94 82 88 79 29 43 83 98 113 95 106 101 90 125 135 156 187 197 221 356 31 22 339 344 346 343 311 280 242 217 190 201 193
34 31 18 5 14 4 2 1 12 10 21 16 23 18 14 18 26 18 25 22 17 14 14 9 3 358 359 352 4 70 103 105 109 117 121 107 100 102 97 99 94 82 83 90 88 55 60 91 77 66 71 62 75 125 154 144 161 170 161 97 142 356 245 207 36 342 337 333 291 268 246 232 229 242